Find LES 9

NORAD ID: 8747 Int'l Des: 1976-023 Owner: SAMSO Country: US operational
HEOCIRCULARGSO

リアルタイム位置

3D地球を読み込み中...

LES 9について

説明を読み込み中...

次回通過

Passes for default location (London). Set your location on the main map for personalized predictions.

高度履歴

Loading altitude history...

軌道要素

1 8747U 76023B 26131.30809727 -.00000112 00000-0 00000+0 0 9997
2 8747 22.2901 37.5145 0023356 181.7162 17.8169 1.00273962129301
Epoch: May 11, 2026 • Age: 19 hours

現在のステータス

高度 35724.4 km
速度 3.08 km/s
衛星直下点 16.99°N, 100.96°W
タイプ other

Most Searched